Wind_Speed
74 74 74 75 76 76 76 76 76 75 74 73 73 72 71 70 70 70 72 76 80 83 85 86 85 84 83 82 80 80 78 77 76 75 75 74 71 70 69 68 66 65 65 65 65 65 64 63 62 61 61 61 61 61 61 60 58 58 59 61 62 62 61 60 59 58 57 57 57 56 54 54 55 59 62 61 62 62 61 61 61 58 55 54 54 53 52 50
74 74 75 76 77 77 77 78 78 77 76 75 75 74 73 72 71 71 71 72 75 79 83 85 86 86 84 82 81 80 79 77 76 76 76 73 71 71 68 67 66 64 64 64 65 64 63 62 62 61 61 61 61 61 60 59 58 58 60 62 62 61 61 60 59 59 58 58 58 58 57 56 57 60 63 64 64 64 65 65 63 58 56 57 57 56 54 52
72 73 74 75 76 76 77 78 79 79 79 78 77 76 75 74 73 71 71 71 71 74 79 83 86 86 86 84 82 81 79 77 76 77 76 71 71 71 68 67 65 64 64 64 64 64 63 63 62 62 61 61 61 61 60 59 59 59 61 62 61 60 60 59 60 59 60 59 59 59 59 58 59 61 64 65 64 65 68 67 63 60 59 60 59 57 56 54
70 71 72 73 74 74 75 77 78 79 80 80 79 78 77 76 75 73 71 71 71 71 74 79 84 86 86 85 84 82 80 78 77 78 74 71 72 71 68 67 65 64 64 64 64 64 63 63 62 62 61 61 61 61 60 60 60 60 62 62 60 60 60 60 60 60 61 60 60 60 60 60 60 62 64 65 65 66 67 65 63 62 62 61 60 59 59 57
68 69 70 70 71 72 73 75 76 78 80 81 81 80 79 78 76 75 73 71 70 71 72 74 80 84 86 86 86 84 81 79 78 77 74 72 72 70 68 66 65 64 64 64 64 63 63 63 62 61 61 61 61 61 60 61 60 61 63 61 60 60 60 60 60 60 61 61 61 60 60 60 59 61 63 64 64 64 64 62 61 61 60 60 61 61 61 59
68 68 68 68 68 69 71 72 74 76 78 80 81 81 81 80 78 76 75 73 71 71 71 72 75 80 84 86 87 85 83 81 80 78 74 73 72 70 67 66 65 64 64 65 64 63 63 62 62 61 61 61 61 61 61 60 60 61 63 61 60 60 60 60 60 60 60 60 60 60 60 59 59 61 63 64 63 63 62 61 60 60 59 59 61 62 62 61
68 68 68 67 67 67 69 70 72 74 76 78 80 81 81 81 79 77 76 75 73 71 71 72 73 75 80 85 87 86 85 83 82 79 75 73 71 69 67 66 65 64 64 64 63 63 63 62 62 62 61 61 62 62 61 60 60 62 62 61 61 61 60 61 61 60 59 60 60 60 60 59 59 60 62 63 63 63 62 62 61 59 58 58 59 61 62 61
68 68 67 67 66 66 67 68 70 72 74 76 78 80 81 81 80 78 77 76 75 74 72 72 72 73 75 82 86 87 87 85 83 80 77 74 72 70 68 66 65 64 64 63 62 62 62 63 63 63 62 62 62 61 60 60 60 62 62 62 62 61 62 61 60 59 58 58 59 60 59 59 58 58 60 61 62 63 62 61 61 59 57 56 59 61 60 60
68 67 67 66 66 66 66 67 69 70 72 74 76 78 79 80 80 79 78 77 76 75 74 72 72 72 73 77 84 87 88 87 84 82 79 75 73 71 69 67 66 64 63 62 62 62 63 65 64 63 63 62 61 60 60 59 60 63 63 62 62 62 62 60 59 58 56 56 59 60 59 58 58 57 58 60 61 62 61 60 59 58 56 56 60 61 59 59
67 67 66 66 65 65 65 66 68 69 71 72 74 76 77 78 79 79 78 77 77 76 75 73 71 72 72 75 80 86 89 87 86 84 80 77 75 73 71 68 66 65 63 62 62 64 65 65 64 63 62 61 61 60 60 60 61 63 63 62 62 62 61 59 58 58 57 56 59 61 60 59 58 57 57 59 59 59 58 57 57 56 55 57 61 61 59 58
66 65 65 64 64 65 65 66 67 68 69 71 72 73 75 77 78 78 77 77 77 77 76 74 72 71 73 74 77 84 88 87 87 85 82 79 76 74 72 69 67 65 63 63 64 65 66 65 63 62 62 61 61 60 61 61 61 63 63 63 62 61 60 59 59 59 58 56 58 60 59 58 58 58 59 59 57 56 55 54 54 54 55 59 61 60 59 58
64 64 64 64 64 64 64 65 65 66 67 68 69 71 73 74 76 76 76 76 76 77 76 75 72 71 72 74 76 80 84 86 87 86 82 80 77 75 73 70 67 66 64 64 65 66 65 63 62 62 62 62 62 61 61 61 62 63 63 62 62 61 59 59 59 59 57 56 57 58 58 59 60 60 60 59 56 54 52 51 52 53 54 58 60 59 59 58
62 62 62 62 62 61 62 62 63 64 65 66 67 68 70 72 73 74 74 75 76 76 76 74 73 72 72 75 76 76 81 86 87 86 83 80 79 77 75 71 68 66 66 66 66 65 64 63 63 63 63 63 63 61 60 61 62 62 61 61 61 60 60 60 59 58 57 58 58 57 59 61 62 61 60 58 54 51 48 48 48 48 51 56 57 57 57 57
58 58 58 58 58 59 60 61 62 63 63 64 65 67 69 70 71 72 73 74 75 76 76 74 73 73 73 75 75 74 80 86 87 85 84 82 80 78 76 72 69 67 66 66 65 65 64 64 64 63 63 63 61 60 60 61 61 61 60 60 61 61 61 60 59 58 58 59 59 59 60 61 61 60 58 56 53 48 45 45 43 43 49 54 54 53 54 54
55 56 56 57 58 59 60 61 62 63 64 65 66 67 69 70 71 72 73 74 75 76 76 74 74 75 74 74 74 75 80 85 86 85 83 82 80 79 77 73 70 68 66 66 66 65 65 64 64 63 63 62 61 60 61 61 61 61 60 61 62 61 61 60 59 59 59 58 58 59 58 58 58 57 55 52 48 44 41 41 41 44 49 53 53 52 51 51
56 57 58 59 60 61 63 64 65 66 66 67 68 70 71 72 73 74 74 76 76 76 76 74 74 77 76 73 74 77 80 84 85 83 82 81 80 78 77 74 70 68 66 66 66 65 64 64 64 63 62 61 60 61 61 61 62 62 61 62 62 61 60 60 60 60 58 57 58 58 56 55 55 52 50 47 42 38 39 41 44 47 50 52 53 53 52 52
59 60 62 63 64 65 66 67 68 68 69 70 71 72 73 75 76 75 76 77 77 77 76 75 76 78 76 74 75 78 80 82 82 82 81 80 79 77 75 73 70 68 67 66 66 65 64 64 63 62 62 61 61 61 61 61 62 63 62 61 61 60 59 59 60 59 56 55 56 57 55 53 54 52 48 46 42 40 42 45 48 50 51 52 54 55 56 55
62 64 65 66 67 67 68 69 70 71 72 73 73 74 75 76 76 76 77 78 77 76 76 76 77 78 77 76 77 78 78 80 80 80 80 78 77 76 74 72 70 69 67 66 66 65 65 64 63 61 61 61 61 61 62 63 64 63 61 60 60 60 59 59 59 57 53 50 51 55 54 52 54 55 52 50 47 46 47 50 52 53 54 55 56 59 60 58
65 66 68 68 69 70 70 71 72 72 73 74 74 74 75 75 75 75 76 76 75 75 76 77 78 78 78 77 76 75 76 77 78 79 78 77 75 74 73 71 69 68 67 66 66 65 64 63 61 61 61 62 62 62 63 64 63 61 59 59 60 60 60 59 57 54 50 47 49 53 54 51 51 55 56 55 53 52 51 53 54 55 56 58 60 61 59 55
67 68 69 69 69 69 70 70 71 71 71 71 71 71 71 71 72 72 72 71 72 73 74 76 78 78 77 76 74 73 74 76 77 77 77 75 74 72 71 69 68 67 66 67 66 65 63 62 61 62 63 64 62 62 63 63 61 59 59 60 60 60 60 58 55 52 49 47 50 53 52 51 51 51 52 52 53 53 53 54 55 56 58 59 58 57 54 51
66 66 65 65 64 64 65 65 64 64 64 65 65 64 65 66 66 65 66 67 70 71 73 76 76 76 75 74 72 72 73 75 76 75 75 74 72 70 69 68 67 66 67 67 66 63 62 61 63 64 64 63 61 62 62 61 60 59 59 60 60 61 59 56 53 50 48 47 50 52 50 51 51 49 49 50 51 52 52 52 54 55 56 55 52 50 49 47
59 58 57 56 57 57 57 56 56 57 57 58 58 58 59 60 60 62 64 66 68 70 72 74 73 72 72 71 70 69 70 72 73 72 72 71 70 69 68 67 67 67 68 66 63 62 61 62 65 65 63 61 60 61 61 60 59 58 59 59 60 61 57 53 50 49 48 46 47 48 47 49 51 50 50 51 52 53 52 52 54 55 53 50 47 46 46 46
50 49 49 49 50 50 50 50 50 51 52 53 53 54 56 57 59 61 63 65 66 67 68 69 69 69 69 68 67 67 69 70 71 71 71 70 69 69 68 67 67 67 66 63 62 61 63 65 66 63 61 60 60 60 59 58 57 57 57 57 60 60 55 50 47 46 46 45 45 46 46 48 51 51 52 53 54 55 54 54 54 53 49 46 45 45 46 47
43 42 43 44 44 44 45 46 47 48 49 50 51 53 55 57 59 61 61 62 62 62 63 65 65 65 65 65 65 66 68 70 71 71 70 70 70 68 67 66 66 65 63 62 62 62 65 65 63 60 59 59 59 58 57 56 56 56 55 55 57 58 53 48 45 43 46 48 48 47 48 50 50 50 51 54 55 56 55 54 51 48 45 44 44 44 46 49
37 38 38 39 40 40 42 43 45 45 46 48 50 53 55 58 59 60 59 59 58 58 59 60 61 63 63 61 62 65 68 68 68 68 69 69 68 67 66 65 64 62 62 62 61 62 64 62 60 59 58 58 57 56 55 55 54 54 54 53 55 54 49 46 45 43 45 49 51 50 50 52 50 49 50 53 55 56 54 52 49 46 45 45 46 48 51 53
33 34 35 36 37 38 39 41 42 43 46 48 51 53 55 57 57 57 55 54 54 54 54 56 59 60 59 58 62 65 65 65 66 67 67 67 66 66 65 64 62 62 62 61 60 62 62 60 59 58 57 56 55 54 54 53 53 53 52 52 53 50 44 44 46 46 46 47 49 49 49 51 50 49 52 55 54 54 53 51 49 47 47 50 52 54 56 57
30 31 32 34 35 37 38 40 42 45 49 52 54 56 56 54 52 51 50 50 51 51 53 55 58 58 57 59 62 63 63 64 64 64 65 65 64 64 63 63 62 62 61 60 59 60 60 58 57 56 55 54 53 53 53 52 53 52 50 51 51 46 42 42 44 47 48 48 48 49 49 50 50 51 55 55 53 53 53 54 54 53 54 56 57 57 57 56
28 30 31 33 35 37 39 42 45 49 53 55 57 57 55 51 48 46 46 47 49 50 53 55 56 56 57 59 60 61 63 63 61 62 64 64 63 63 62 62 62 61 60 58 58 59 59 57 56 55 54 52 52 52 52 51 51 49 49 50 47 42 40 39 40 43 49 52 52 50 50 52 54 56 58 58 57 56 57 59 59 58 57 57 56 55 54 52
27 29 31 33 36 38 41 44 48 52 55 56 56 54 51 48 46 45 44 45 47 50 53 55 55 55 56 58 60 61 62 60 59 62 63 63 61 61 61 62 62 61 60 58 58 59 59 57 56 55 53 52 52 52 51 50 49 49 48 46 43 40 38 37 37 39 45 50 51 52 54 56 57 59 60 61 60 58 57 57 57 55 54 52 51 50 49 47
27 30 32 34 36 39 41 46 50 53 55 55 54 53 51 49 46 45 45 46 48 51 53 54 55 54 56 58 59 59 60 59 59 60 60 60 59 59 60 61 61 60 58 57 56 57 57 56 54 53 51 51 50 49 48 47 48 49 47 43 41 39 37 37 36 35 37 39 43 48 51 52 52 53 54 56 54 52 51 51 51 51 50 48 47 47 46 44
28 30 32 35 38 40 43 48 52 54 55 55 54 52 50 48 47 46 47 47 48 50 52 53 53 54 55 57 58 59 60 58 57 57 58 58 57 57 58 58 58 57 55 54 54 55 55 53 52 51 50 49 48 47 47 47 48 49 45 42 40 38 37 36 34 34 34 34 38 42 43 43 43 43 45 47 47 45 45 46 47 48 46 46 45 44 43 42
29 32 35 38 40 40 45 50 53 54 54 54 52 49 47 46 47 47 47 47 48 51 52 53 53 54 55 56 58 59 58 57 56 57 58 57 56 57 58 58 57 56 54 54 55 55 54 53 52 51 50 49 48 48 47 47 47 47 44 41 39 37 36 35 34 34 34 35 38 37 37 36 36 35 36 40 41 40 40 41 43 44 44 44 44 43 41 41
32 36 39 41 41 42 45 50 52 53 53 52 50 47 46 46 47 48 48 49 52 53 54 54 54 55 55 56 57 58 57 57 57 58 59 58 58 57 57 57 57 56 55 56 56 56 55 54 53 52 50 49 48 47 45 46 47 46 43 41 39 37 35 34 35 36 35 37 37 35 34 33 32 30 30 34 37 37 38 39 41 43 44 44 43 42 40 39
35 39 41 41 43 45 46 49 51 52 52 51 48 46 46 47 49 50 49 50 53 54 54 55 55 55 55 56 57 57 57 58 59 59 59 58 57 56 56 56 56 55 56 56 56 55 54 53 52 51 50 49 47 47 47 48 47 45 43 41 39 37 35 35 37 38 38 38 37 35 33 32 32 30 27 30 35 38 40 41 42 44 45 45 44 42 40 38
37 41 42 41 43 46 48 49 50 51 51 49 48 47 48 50 50 50 51 52 53 53 53 54 54 54 55 56 56 57 57 59 60 60 59 58 58 57 57 57 57 57 56 55 55 54 53 52 51 51 50 49 49 48 48 47 45 43 43 41 39 37 37 38 40 41 39 38 37 35 34 34 34 31 29 31 35 39 42 42 43 44 45 45 43 41 39 36
39 43 43 43 45 47 49 49 49 49 48 47 47 49 51 52 50 50 51 52 53 52 51 51 52 53 54 55 56 56 56 57 58 59 59 59 58 58 58 58 58 58 57 56 56 55 54 54 53 53 51 50 50 49 47 45 44 44 44 44 42 41 41 40 41 41 40 38 37 36 37 38 36 32 32 34 37 40 41 42 43 44 44 44 42 39 36 33
40 44 45 45 47 50 51 50 49 48 47 47 49 52 52 51 50 49 50 51 52 52 51 52 53 55 55 56 57 57 57 57 57 57 58 59 59 59 59 59 59 58 58 58 57 56 56 56 54 53 52 50 50 49 47 46 46 45 46 47 45 43 41 40 41 41 40 39 38 38 40 40 37 35 35 36 39 40 41 42 43 44 44 44 43 40 35 31
42 45 46 47 49 51 52 51 50 49 48 49 51 51 51 50 49 49 49 49 50 51 52 53 53 54 55 56 56 56 56 55 55 56 57 59 60 61 60 60 59 59 58 58 57 57 57 56 53 52 51 50 49 49 48 47 47 47 48 49 46 43 41 41 41 41 41 41 40 40 42 41 39 38 37 39 40 40 41 42 42 43 43 43 42 39 34 31
46 49 49 49 50 52 52 52 51 50 50 51 52 51 50 49 48 49 49 48 49 50 50 51 52 53 53 54 54 54 55 55 56 57 58 59 60 60 59 58 58 59 58 56 56 56 56 54 52 52 52 50 50 50 48 48 48 49 49 48 46 45 43 42 42 42 42 42 41 41 41 41 41 41 40 40 40 41 42 42 42 42 41 39 37 35 32 30
48 52 52 51 52 52 53 52 51 51 52 52 52 50 49 48 48 49 49 49 50 50 51 52 52 53 53 53 53 53 53 53 55 57 58 59 59 58 57 56 56 56 56 55 56 55 54 52 51 52 52 51 50 50 50 50 51 51 50 49 49 47 45 43 43 43 43 43 42 41 41 42 43 42 41 40 41 41 42 42 41 41 40 36 33 30 28 26
47 52 53 52 52 53 53 54 54 54 53 52 51 49 48 47 48 48 48 49 51 53 54 54 53 53 52 52 53 53 52 52 53 55 56 57 57 56 55 55 55 55 55 56 56 54 51 51 51 52 52 51 51 52 53 53 53 52 52 51 50 48 46 44 44 44 44 44 42 41 41 42 42 42 41 41 41 41 42 41 40 38 37 34 30 26 24 23
47 53 55 54 54 54 54 55 56 55 53 51 50 48 47 47 46 45 45 47 50 52 52 52 52 52 52 53 54 55 55 54 54 54 55 55 55 55 55 55 55 56 56 56 54 52 51 52 52 52 52 52 53 53 53 54 54 53 51 50 49 48 46 44 44 44 45 45 43 42 41 41 41 42 42 42 42 42 42 43 40 37 34 32 28 25 23 23
48 53 56 57 56 55 54 55 55 55 54 51 49 48 47 46 46 46 47 48 50 50 50 50 52 53 54 55 55 56 57 57 56 56 56 55 55 55 55 55 55 55 56 56 54 53 54 54 54 54 55 55 55 55 53 53 54 53 50 49 49 47 46 45 45 46 46 45 44 43 42 42 42 43 43 43 43 43 44 44 41 35 32 32 31 29 27 26
50 53 56 58 59 57 55 55 56 56 54 52 50 50 49 50 51 52 51 51 51 50 49 50 53 55 56 56 56 56 57 57 58 58 57 56 54 54 55 56 56 56 56 56 56 56 56 56 55 56 58 58 57 57 56 55 55 54 52 51 51 49 48 47 48 48 47 46 45 44 44 44 44 44 45 44 44 44 43 43 40 34 34 36 36 35 34 31
51 53 54 57 60 60 58 58 58 57 57 56 55 54 53 54 55 54 53 53 52 51 51 52 53 55 57 58 59 59 59 59 58 58 58 57 56 56 57 58 58 58 58 58 58 58 59 58 57 57 58 59 59 59 59 57 57 56 55 54 54 52 50 49 48 48 48 47 46 46 46 46 45 45 46 45 45 43 42 41 38 35 37 40 41 41 41 37
50 52 53 53 56 59 59 59 58 59 60 59 56 55 54 55 54 54 54 54 53 52 52 53 54 56 57 58 59 61 62 62 61 60 60 60 60 61 62 62 62 62 61 61 62 62 62 61 61 61 62 62 62 62 61 59 57 56 56 55 53 52 50 49 49 49 49 48 46 46 47 46 45 46 46 46 45 44 42 41 37 36 40 42 43 45 45 41
47 50 51 51 51 52 53 53 53 55 56 56 54 53 53 54 54 54 53 52 52 51 51 51 53 54 55 56 58 60 62 62 63 62 62 62 63 65 66 66 67 66 65 65 66 66 65 65 65 65 65 65 64 63 62 59 57 56 55 54 52 51 50 50 50 50 50 48 46 47 47 46 45 46 47 46 46 45 43 40 37 39 42 44 45 47 46 43
44 44 45 47 47 46 45 45 45 47 47 47 47 47 47 49 50 50 49 49 49 49 49 50 52 53 54 54 55 57 58 58 58 59 60 62 64 66 67 68 68 68 68 68 68 68 67 67 66 65 65 65 64 63 62 60 58 56 55 54 52 50 49 50 51 51 49 48 47 46 46 45 45 46 46 46 46 45 42 38 37 41 44 46 47 48 46 44
43 43 43 43 43 43 42 41 40 40 40 40 41 41 42 44 45 45 45 45 45 46 48 49 50 50 50 50 51 52 53 53 53 54 55 58 61 64 66 67 68 68 68 69 69 69 68 67 66 66 66 65 63 63 62 60 59 57 56 55 53 51 50 50 51 50 48 47 46 45 45 45 46 46 46 47 47 45 42 38 38 42 46 48 49 49 47 45
43 43 43 43 43 42 42 41 40 39 38 38 38 39 39 41 41 42 42 43 43 45 46 47 47 48 48 48 49 50 51 51 51 52 53 54 57 60 62 64 65 66 66 67 68 67 67 67 67 67 67 67 66 65 65 64 62 60 58 57 55 53 51 50 50 49 49 47 45 45 46 46 47 47 47 47 46 43 40 37 38 42 48 51 52 51 49 47
43 43 42 42 42 41 40 40 39 39 38 38 38 38 39 40 40 41 41 42 43 44 45 45 47 48 48 48 49 49 50 50 52 53 54 54 56 58 60 62 63 63 64 65 64 63 64 64 64 65 66 67 67 68 68 67 66 64 62 60 58 56 53 52 52 52 50 48 47 47 47 47 47 47 46 45 43 40 37 36 37 41 46 51 53 53 51 50
42 42 41 41 41 40 39 38 38 38 38 38 39 39 40 40 41 41 42 43 44 45 46 48 49 49 48 48 48 48 49 51 52 52 51 52 53 55 58 60 61 60 60 61 61 61 61 61 61 62 63 64 66 67 67 68 67 66 64 62 60 58 56 55 55 54 52 50 49 48 47 47 46 45 44 42 40 38 36 34 35 38 42 47 52 53 53 52
Wind_Direction
259 258 258 257 257 257 257 257 257 256 255 254 253 251 249 247 245 245 245 244 243 242 242 241 241 241 241 241 241 242 241 241 241 241 241 241 242 243 244 245 245 246 247 247 248 249 250 250 251 251 252 253 253 254 255 256 256 257 257 258 259 261 263 265 267 268 269 270 271 270 269 268 267 267 269 268 268 268 267 265 263 262 264 264 263 263 262 262
259 258 257 257 256 256 256 256 256 256 255 254 253 252 250 249 246 245 244 244 243 242 242 241 241 241 240 240 241 241 241 241 241 240 241 241 242 242 243 244 244 245 246 247 248 249 249 250 250 250 251 252 253 254 255 255 256 257 257 258 260 263 264 266 268 269 270 270 271 271 270 268 267 267 268 268 268 269 268 266 265 265 265 263 262 262 262 262
258 258 257 256 256 255 255 254 254 254 254 254 253 252 251 250 248 246 244 243 243 242 242 241 240 240 240 240 240 240 240 241 240 240 241 240 241 241 241 242 243 243 245 246 247 248 248 249 249 249 250 251 252 253 254 255 256 257 258 260 261 264 266 268 270 270 271 271 272 271 270 269 268 267 267 267 268 268 268 268 268 267 265 263 263 262 262 262
258 257 256 256 255 255 254 253 253 253 253 252 252 252 251 250 249 247 245 243 242 242 242 241 240 239 239 239 239 239 239 239 240 241 241 240 240 241 241 241 242 243 244 245 246 247 247 247 248 249 250 251 252 253 254 255 256 258 260 261 263 265 268 269 271 272 273 273 272 272 271 270 268 267 267 267 267 267 268 269 269 267 265 264 263 262 261 260
258 257 257 256 255 255 254 253 252 251 251 251 251 250 250 249 249 248 246 244 242 242 241 241 240 239 238 238 238 238 238 238 239 240 240 239 240 240 240 240 241 242 243 244 245 246 246 246 247 248 249 250 252 253 254 256 258 260 262 263 265 267 268 270 272 273 274 274 273 272 271 270 268 267 267 267 267 267 268 268 268 266 265 264 263 262 261 260
259 258 257 256 255 255 254 253 251 250 250 249 249 249 249 248 248 247 247 246 243 241 241 240 240 238 237 237 237 237 237 237 238 239 238 238 239 239 239 239 240 241 242 243 244 245 245 246 246 247 248 250 252 253 255 257 259 262 264 266 267 268 270 271 272 273 274 273 272 271 269 268 268 267 267 267 266 266 266 265 264 264 264 264 264 263 262 260
260 259 258 257 256 255 254 253 251 249 248 248 247 247 247 247 247 247 246 246 245 242 240 240 239 238 237 236 236 237 237 236 237 237 237 237 238 238 238 238 239 240 241 242 243 244 244 245 245 246 248 250 251 253 256 259 262 264 266 267 268 269 271 272 273 273 273 273 272 271 269 268 267 267 268 268 267 265 265 264 264 264 264 265 264 263 261 260
261 260 259 258 256 255 254 252 250 248 247 246 246 246 245 245 245 245 245 244 244 243 241 239 239 238 237 236 235 235 236 236 236 237 236 236 237 237 237 237 238 239 240 241 242 243 243 243 244 245 247 249 252 255 258 261 263 265 266 267 269 271 272 273 273 273 273 273 272 270 269 268 267 266 267 267 266 265 264 265 265 265 264 264 262 261 260 260
260 259 259 257 256 254 253 251 249 248 246 245 244 244 244 244 243 243 243 243 243 243 242 240 238 237 237 236 234 234 235 235 235 236 235 235 236 236 236 237 238 239 240 240 241 242 242 242 243 245 248 251 254 257 260 262 263 265 267 269 271 272 273 273 273 273 272 272 272 271 269 268 267 266 266 266 265 265 265 266 266 265 265 263 260 260 260 259
259 258 257 256 255 253 251 250 248 247 245 244 243 242 242 242 241 241 241 241 242 242 242 240 238 237 236 235 234 233 233 234 234 235 234 235 235 236 236 237 238 239 240 240 240 241 241 243 244 247 250 253 255 258 259 261 263 266 268 270 272 273 273 274 274 273 271 271 273 273 271 269 268 267 265 264 264 265 266 266 266 265 264 261 260 259 259 259
258 257 256 254 253 252 251 249 247 246 244 243 241 241 240 240 240 239 239 239 240 240 241 240 238 236 235 235 234 232 232 233 234 234 234 234 235 236 237 237 238 239 239 239 240 240 242 244 246 249 251 253 255 257 259 261 264 266 268 270 271 273 274 274 274 273 273 273 274 274 273 272 269 266 264 264 264 265 265 264 264 263 262 260 260 260 260 259
256 255 254 253 252 251 250 248 246 244 242 241 240 239 239 239 238 238 238 238 238 239 239 239 238 236 235 235 234 232 231 231 233 233 233 234 234 236 237 238 238 238 238 239 239 241 243 245 247 248 250 252 254 256 259 262 264 266 268 271 272 273 274 273 273 274 276 275 273 273 273 271 268 267 266 266 265 264 264 264 263 262 261 260 260 260 260 260
256 255 254 253 251 250 248 246 245 243 241 240 239 238 237 237 237 236 236 236 237 237 238 238 238 236 234 234 233 232 231 230 231 232 232 233 234 235 237 237 237 238 238 238 240 241 243 245 246 248 249 251 254 257 260 262 263 266 269 271 273 272 272 272 275 277 277 275 274 273 272 270 268 267 266 265 265 264 264 263 263 263 262 262 261 260 260 259
257 255 254 252 250 249 247 245 244 242 241 240 239 238 237 236 236 235 235 235 236 236 237 237 238 237 234 233 232 231 230 229 229 231 231 232 232 234 235 236 236 236 237 238 239 241 242 243 245 247 250 252 255 258 259 261 263 266 268 270 271 271 272 274 277 277 277 276 276 274 271 270 268 267 265 264 263 262 262 262 264 264 263 263 263 262 261 261
258 256 254 253 251 249 248 246 245 243 242 240 239 238 237 236 236 235 235 235 235 236 236 236 236 236 234 231 231 230 229 228 228 229 230 231 232 233 234 235 235 236 236 237 238 239 241 243 245 248 250 253 255 257 259 261 263 265 267 267 269 272 275 277 277 277 277 277 275 273 270 268 267 266 266 266 265 265 265 266 267 265 263 264 266 266 265 264
259 258 256 255 253 251 250 248 247 245 244 242 241 239 238 237 237 236 235 235 235 235 236 235 234 235 233 230 229 229 228 227 226 227 229 230 231 232 233 234 235 235 236 236 238 240 242 244 246 249 251 253 255 258 260 262 263 264 265 267 270 274 276 278 278 277 277 276 273 269 267 264 262 262 262 261 262 263 263 264 265 264 265 266 269 269 269 268
262 261 259 257 256 254 252 250 249 247 246 244 242 241 240 239 238 237 236 236 235 235 235 234 233 233 232 229 227 227 226 226 225 225 227 229 230 231 232 233 234 235 235 236 238 239 241 244 246 249 252 254 256 257 259 261 262 263 265 269 273 275 277 277 277 277 277 274 269 266 264 260 256 256 257 255 254 253 253 255 258 260 262 264 267 270 272 273
265 263 262 260 258 256 254 252 251 249 247 245 243 242 240 239 238 237 236 236 235 234 233 232 231 230 230 227 225 225 225 225 224 224 226 228 229 230 231 232 233 234 235 236 238 239 241 244 247 250 252 254 255 256 258 259 262 265 269 272 274 275 276 276 277 277 274 269 263 261 261 259 254 252 252 253 252 251 251 254 256 258 260 262 265 269 273 275
267 265 263 261 259 257 255 253 251 249 247 245 243 242 240 239 237 236 235 234 233 231 229 229 228 227 227 226 224 223 223 223 223 223 224 226 228 229 230 231 232 234 235 236 237 239 241 244 247 249 251 252 254 255 258 260 264 268 271 272 273 275 275 276 275 272 267 259 255 256 258 260 255 250 250 252 253 253 254 256 257 260 262 263 266 270 272 272
268 266 264 262 259 257 254 251 249 247 245 243 242 240 238 236 235 233 231 229 227 226 225 225 225 224 224 223 222 221 221 221 221 222 223 224 226 228 229 230 231 233 234 235 236 238 241 244 246 248 249 251 253 256 258 262 266 269 271 272 273 274 275 275 273 268 262 254 250 253 257 259 256 251 251 253 254 255 256 257 260 262 264 266 269 270 269 268
268 265 262 259 256 253 250 247 245 243 241 239 237 235 233 231 228 225 222 220 219 219 219 221 221 221 221 220 220 219 219 219 219 220 222 223 225 227 228 230 231 232 232 234 236 238 241 244 245 247 248 251 254 256 259 263 266 269 270 272 273 273 274 273 271 266 260 253 248 251 256 258 257 254 253 254 255 256 257 259 260 261 264 266 267 267 267 267
265 262 258 254 250 247 245 242 240 238 235 233 231 228 225 222 218 215 212 211 212 214 216 218 219 218 218 217 217 217 217 218 218 219 221 222 224 225 226 228 229 230 232 234 236 239 241 242 244 246 249 251 254 257 260 263 266 268 270 272 273 273 273 272 269 265 260 255 251 251 253 256 259 257 255 255 254 255 256 257 258 261 265 265 263 263 265 265
261 257 253 248 245 242 239 236 233 230 228 225 222 218 216 212 208 206 206 207 209 211 215 217 216 215 215 215 214 215 215 216 216 217 219 220 222 224 225 227 229 230 232 234 236 237 239 241 244 247 249 252 255 258 261 264 266 268 270 272 274 274 274 271 267 262 257 254 251 249 250 254 260 262 260 258 256 256 256 258 261 263 263 262 262 263 265 265
256 251 247 243 240 236 232 229 225 223 220 217 213 210 207 203 200 200 202 205 207 210 213 215 214 213 212 212 212 213 214 214 215 216 217 219 221 223 224 226 229 231 232 234 235 237 239 242 245 247 250 252 255 259 261 263 265 267 270 272 274 274 273 270 265 257 250 247 247 246 246 251 259 264 266 264 261 260 260 261 262 261 260 260 261 262 263 265
250 245 241 237 233 229 225 222 219 216 212 208 205 202 199 197 196 198 201 203 206 210 212 213 212 211 210 209 211 213 213 214 215 216 218 219 221 223 224 226 228 230 232 233 235 237 240 242 245 247 250 252 255 258 260 262 265 267 270 272 271 271 271 269 264 257 250 248 247 247 247 250 255 261 264 264 264 264 262 261 259 258 259 259 260 260 261 262
244 239 234 230 225 221 218 214 211 207 202 198 196 194 194 193 195 198 200 203 206 208 209 210 210 209 207 207 209 212 213 214 215 216 218 219 221 223 225 226 228 229 231 233 234 237 240 242 244 247 249 252 255 257 260 262 264 266 269 270 269 269 269 265 260 257 254 252 250 250 251 253 255 256 257 258 260 262 262 262 260 260 261 262 263 263 263 262
238 232 228 223 218 213 209 205 201 196 192 190 189 189 189 190 193 197 200 202 205 204 205 207 208 206 204 205 209 210 211 213 214 216 218 219 221 223 224 226 227 229 231 233 235 238 240 242 244 246 249 251 254 257 259 261 263 266 268 268 269 270 266 261 259 256 254 253 251 251 253 254 253 252 252 254 255 258 262 265 266 266 265 266 266 265 266 266
230 225 220 215 210 205 201 197 193 189 187 187 187 188 187 186 190 195 198 201 202 202 203 205 206 204 202 205 208 210 211 212 213 216 218 218 220 222 224 225 227 229 230 232 234 237 239 241 243 245 248 251 253 256 258 260 263 265 266 269 271 270 266 262 258 254 251 250 251 251 252 251 250 250 253 255 256 259 264 267 268 268 266 266 266 266 266 266
224 218 212 208 204 199 196 192 188 186 186 186 186 185 183 184 188 192 195 197 199 200 202 204 205 203 201 204 207 209 211 211 212 216 218 218 220 222 224 225 226 228 230 231 234 237 240 241 243 246 248 251 253 255 258 260 263 264 266 270 271 268 265 261 257 253 251 250 251 252 251 250 251 254 257 258 260 262 265 266 267 268 268 267 268 268 268 267
217 211 206 201 197 194 190 187 185 185 184 183 183 182 182 184 187 190 193 195 196 198 201 203 204 202 201 203 207 209 210 210 212 216 218 218 220 222 224 226 228 229 231 232 235 238 240 242 244 247 249 250 253 255 257 259 261 263 266 269 269 268 266 262 260 258 256 253 252 251 251 251 253 255 258 260 261 262 263 264 265 265 267 267 268 269 269 269
210 203 198 193 190 188 186 183 183 183 182 181 182 182 183 184 186 189 193 195 196 198 200 202 203 202 202 203 206 209 209 209 212 216 218 218 219 221 224 226 228 229 230 232 234 238 240 242 244 245 246 248 249 251 254 257 260 263 266 269 270 270 267 266 265 263 261 257 254 252 253 254 254 255 258 261 262 261 261 263 264 265 265 266 266 267 268 268
202 194 189 186 185 185 183 182 182 181 181 181 181 182 183 183 186 189 192 194 197 199 200 201 201 202 202 203 206 209 209 209 211 214 217 216 216 219 220 222 225 226 227 228 231 234 237 239 241 242 244 245 247 251 254 256 258 262 266 269 270 270 268 267 266 265 263 260 257 257 258 258 257 257 259 262 263 263 263 265 267 269 269 270 270 271 271 270
193 187 184 184 182 181 181 181 180 179 180 181 182 182 182 183 187 190 191 194 198 200 200 201 201 201 202 203 206 208 208 209 211 214 217 216 216 218 220 222 225 226 227 228 231 234 237 239 241 243 244 246 248 250 251 252 255 261 266 268 268 268 268 266 265 264 263 262 262 262 262 263 262 260 261 266 268 269 268 269 271 273 275 276 276 277 276 274
188 184 183 182 181 179 178 178 178 179 181 182 182 181 183 187 190 191 192 195 198 200 201 201 201 202 202 203 206 207 207 208 210 214 217 217 217 219 221 224 226 228 229 231 233 236 238 241 242 243 244 245 246 246 248 252 257 262 265 265 266 266 265 263 261 261 260 261 264 266 267 266 264 263 262 266 270 273 273 273 273 276 278 279 280 280 278 274
185 182 181 180 179 177 176 176 178 181 182 182 181 181 185 189 191 192 195 198 199 200 201 202 201 202 203 204 206 207 208 209 211 214 216 218 218 219 221 223 225 227 228 230 232 235 237 239 240 241 242 243 244 246 250 254 258 260 261 263 263 261 258 256 257 259 260 263 266 267 268 266 265 266 265 266 269 272 274 276 277 279 280 281 281 280 277 270
183 180 179 177 176 175 174 176 180 182 183 182 181 183 187 190 191 192 196 200 201 201 202 202 202 202 204 205 207 207 209 210 212 214 216 219 219 219 221 223 225 226 227 228 230 232 233 235 237 239 241 243 245 247 250 252 254 257 260 260 259 256 255 256 259 261 262 264 266 266 266 265 268 271 270 270 270 272 276 278 280 281 282 281 280 278 275 265
182 180 177 175 175 175 175 178 182 183 183 183 185 188 190 191 191 193 197 200 201 202 203 204 204 203 205 206 207 207 208 210 212 214 216 219 220 220 221 223 225 226 227 228 230 231 233 235 237 239 242 243 245 247 248 251 254 257 258 258 257 257 258 259 259 261 262 263 264 265 266 268 271 273 272 272 273 275 278 280 281 282 282 281 280 277 272 259
180 179 177 175 176 177 177 180 184 185 186 187 189 192 193 193 193 195 197 199 200 201 204 206 206 206 207 209 209 209 210 210 212 214 216 219 221 221 221 223 225 227 228 229 230 232 234 236 238 240 242 243 245 247 249 253 256 257 256 256 257 258 258 258 259 261 262 262 263 264 267 270 273 273 272 273 275 277 280 281 282 282 281 281 279 275 268 254
179 178 177 177 178 179 180 183 185 187 190 192 192 194 194 194 196 198 200 200 200 201 203 207 208 207 208 210 212 213 213 213 214 216 217 219 221 222 222 224 226 228 230 231 232 233 235 237 238 240 242 243 245 249 251 254 255 255 255 256 256 255 255 258 260 261 262 262 263 265 267 270 272 272 272 274 277 279 281 283 283 282 281 279 273 268 260 248
181 179 178 179 179 181 183 186 188 190 192 193 194 195 195 196 199 201 203 203 202 202 204 207 209 208 208 209 210 213 214 215 217 219 220 221 222 223 224 224 226 229 231 232 232 234 235 238 239 241 243 244 246 249 251 252 252 252 252 252 252 253 256 259 261 263 264 264 265 266 268 269 270 272 274 276 278 280 282 283 283 283 281 273 261 254 248 242
181 180 180 180 181 182 185 189 192 193 193 193 195 196 197 199 202 205 207 208 207 206 205 207 209 210 211 210 211 212 214 214 216 219 221 223 224 225 225 226 227 228 230 231 233 234 236 238 240 242 244 245 246 248 250 251 251 251 251 251 253 255 258 261 264 265 266 266 267 268 268 268 270 273 275 277 279 282 284 284 284 284 277 263 249 240 234 232
182 181 182 182 183 185 187 191 194 196 196 197 198 199 200 201 204 206 209 212 213 211 209 208 210 212 213 214 213 214 215 215 216 217 220 222 223 224 225 227 227 228 229 231 233 234 235 236 238 240 242 244 245 247 249 252 253 253 254 255 256 258 260 263 266 266 266 266 267 268 269 269 270 272 274 277 279 282 283 283 283 280 267 249 236 228 223 226
184 184 186 186 185 187 190 192 195 197 197 199 199 201 203 204 206 207 209 212 214 214 211 210 211 213 214 215 216 216 216 217 217 219 220 221 222 223 224 225 227 229 231 231 232 233 234 235 237 239 241 242 244 246 247 250 253 255 256 256 255 257 260 263 263 263 263 264 266 267 267 267 268 270 273 275 278 281 283 282 280 273 253 234 226 220 217 222
186 186 188 189 189 190 192 193 195 197 198 199 199 200 202 204 207 209 211 213 216 216 214 213 214 214 215 216 218 218 219 219 219 221 223 224 225 227 227 226 226 228 230 232 232 233 235 236 237 240 242 244 246 247 248 250 252 254 254 254 255 257 259 260 259 259 260 261 262 264 264 265 268 270 272 275 278 281 283 282 276 263 239 225 222 218 214 218
188 187 189 191 193 195 195 195 196 197 199 200 200 200 202 206 209 211 213 216 219 219 219 218 219 219 218 219 220 220 221 221 222 223 224 225 226 229 230 230 229 229 231 233 233 234 235 237 238 240 243 246 248 250 251 252 253 254 255 255 256 256 257 257 257 257 257 257 259 261 263 265 267 270 272 276 279 280 282 281 271 252 231 222 222 219 215 218
190 191 191 192 195 197 199 200 199 200 202 204 205 205 207 210 214 216 217 220 223 224 225 225 225 225 224 224 224 224 223 223 223 225 226 227 228 230 231 232 233 232 233 235 236 237 238 239 240 242 244 246 248 249 251 251 252 253 254 254 254 254 253 253 253 254 254 255 257 260 262 265 267 270 272 275 277 277 280 280 266 242 226 222 223 221 219 221
191 194 195 196 197 199 201 202 203 204 207 209 210 212 214 216 219 222 223 225 227 229 229 230 231 231 230 229 229 229 228 226 225 226 228 230 231 232 234 235 236 236 236 238 239 240 242 242 244 245 246 248 249 250 251 251 251 252 252 253 252 251 251 251 252 253 254 256 258 259 262 265 267 269 271 273 275 276 279 278 260 236 225 222 221 222 222 225
191 194 197 199 201 203 204 205 206 207 208 209 210 211 213 216 219 222 224 225 227 228 229 230 231 231 231 230 231 232 232 230 229 228 229 232 234 235 237 238 239 239 240 240 241 242 243 244 245 246 248 249 250 251 252 252 252 252 252 253 252 251 251 251 253 254 255 257 258 259 262 264 265 267 269 271 274 276 278 272 253 234 226 222 220 220 223 228
190 192 196 199 201 204 205 207 208 209 209 209 210 210 211 214 217 220 222 223 225 227 228 229 231 231 232 232 232 234 234 234 232 231 230 231 234 237 238 239 240 241 241 242 242 242 243 244 245 246 247 249 250 251 252 252 253 253 252 252 252 252 252 252 253 255 256 256 257 258 260 261 263 265 268 270 273 277 276 266 247 233 227 223 220 220 224 229
191 193 196 198 201 203 204 205 207 209 211 212 213 213 214 217 219 221 223 224 226 228 230 231 233 234 234 234 234 234 234 234 234 232 231 230 232 235 237 238 238 239 240 241 242 242 242 243 244 244 246 247 248 249 250 251 252 251 251 252 252 252 252 253 254 254 255 255 256 257 258 259 261 264 267 270 275 278 274 263 246 233 228 225 221 221 226 230
192 194 196 199 202 204 205 207 208 209 211 213 216 217 219 221 222 224 226 228 229 231 233 234 235 236 235 235 236 236 236 235 234 233 231 229 229 232 235 236 236 237 238 240 241 241 242 242 242 242 243 244 245 247 248 249 250 250 249 250 251 251 251 251 252 253 254 255 256 257 258 259 261 264 268 273 277 276 270 261 249 237 231 228 226 225 228 231
193 195 196 199 202 204 206 208 210 211 213 215 218 220 222 224 225 226 228 229 231 232 233 234 235 236 236 236 238 238 238 237 235 233 233 233 232 232 235 237 237 237 238 239 241 241 242 242 242 243 242 242 243 244 245 246 247 247 247 248 248 249 249 250 251 253 254 255 256 256 257 257 260 264 269 274 276 274 267 258 249 241 235 231 229 228 229 231
Height
10605 10606 10607 10608 10609 10611 10612 10613 10616 10618 10620 10623 10625 10629 10632 10635 10638 10641 10645 10649 10653 10658 10664 10669 10674 10679 10683 10688 10693 10696 10700 10705 10708 10711 10711 10715 10722 10724 10728 10731 10735 10737 10739 10742 10744 10746 10750 10753 10756 10758 10760 10760 10762 10764 10766 10768 10771 10772 10770 10766 10766 10770 10774 10777 10781 10783 10786 10787 10788 10791 10794 10794 10794 10789 10784 10785 10784 10786 10791 10793 10795 10798 10801 10802 10802 10803 10804 10807
10595 10596 10597 10598 10600 10601 10603 10604 10606 10608 10610 10613 10616 10619 10622 10625 10629 10632 10636 10640 10645 10650 10655 10660 10665 10670 10675 10681 10685 10688 10693 10698 10702 10702 10703 10713 10717 10717 10722 10725 10728 10731 10733 10736 10738 10741 10744 10747 10750 10752 10753 10755 10757 10759 10761 10763 10765 10765 10762 10760 10764 10767 10770 10773 10775 10777 10779 10781 10782 10783 10786 10787 10787 10785 10780 10778 10780 10781 10782 10784 10789 10795 10797 10796 10796 10798 10799 10801
10585 10586 10587 10589 10590 10591 10593 10594 10597 10598 10600 10603 10606 10609 10612 10616 10620 10623 10628 10632 10637 10641 10646 10650 10656 10661 10667 10673 10677 10681 10686 10692 10695 10693 10699 10711 10709 10710 10717 10718 10721 10725 10728 10730 10732 10735 10738 10741 10744 10746 10748 10750 10751 10753 10755 10757 10758 10758 10754 10756 10762 10764 10765 10768 10769 10771 10772 10774 10776 10776 10778 10781 10781 10777 10774 10774 10775 10775 10774 10778 10785 10789 10790 10789 10791 10794 10794 10797
10575 10576 10577 10578 10580 10581 10583 10585 10587 10589 10591 10593 10596 10599 10602 10606 10610 10614 10619 10624 10629 10633 10637 10641 10646 10652 10658 10665 10669 10674 10679 10685 10686 10686 10696 10704 10700 10704 10711 10712 10715 10719 10722 10724 10726 10729 10732 10735 10737 10740 10743 10744 10746 10747 10750 10750 10752 10751 10749 10753 10759 10760 10761 10763 10763 10764 10765 10767 10770 10770 10770 10773 10773 10770 10768 10768 10770 10769 10769 10773 10779 10780 10781 10782 10785 10787 10788 10791
10565 10566 10567 10568 10570 10571 10573 10575 10577 10578 10580 10583 10586 10589 10592 10596 10601 10605 10610 10615 10620 10624 10629 10633 10637 10643 10650 10656 10661 10666 10672 10677 10679 10681 10691 10695 10693 10699 10704 10706 10709 10712 10716 10718 10720 10724 10727 10730 10732 10735 10736 10738 10740 10742 10743 10744 10747 10746 10744 10750 10754 10755 10756 10758 10758 10758 10759 10760 10761 10763 10763 10764 10766 10763 10761 10762 10764 10765 10766 10769 10771 10772 10773 10775 10777 10778 10780 10784
10554 10555 10556 10558 10560 10561 10563 10564 10566 10568 10570 10573 10576 10579 10583 10587 10591 10596 10602 10607 10611 10616 10620 10624 10629 10634 10641 10647 10652 10658 10665 10669 10671 10675 10683 10687 10688 10693 10697 10700 10703 10706 10709 10711 10715 10719 10722 10725 10727 10729 10730 10733 10734 10735 10737 10739 10742 10740 10740 10746 10747 10748 10750 10752 10753 10753 10754 10753 10753 10755 10756 10757 10759 10757 10754 10755 10758 10759 10760 10762 10763 10765 10768 10770 10770 10770 10772 10775
10543 10544 10546 10548 10549 10551 10552 10554 10556 10558 10560 10562 10565 10569 10573 10577 10582 10588 10593 10597 10602 10606 10611 10615 10620 10626 10633 10638 10643 10650 10656 10660 10663 10668 10676 10680 10683 10687 10691 10694 10697 10700 10702 10705 10710 10713 10716 10720 10721 10722 10725 10727 10728 10730 10733 10736 10738 10735 10736 10739 10739 10742 10745 10746 10747 10748 10748 10746 10745 10746 10748 10751 10753 10752 10749 10748 10750 10751 10753 10755 10757 10760 10764 10766 10764 10762 10764 10766
10532 10533 10535 10537 10538 10540 10542 10543 10545 10547 10550 10552 10555 10559 10563 10568 10573 10578 10584 10588 10592 10597 10602 10607 10612 10618 10625 10630 10635 10642 10646 10650 10656 10661 10668 10673 10676 10680 10684 10687 10690 10693 10696 10700 10704 10708 10711 10713 10714 10716 10718 10720 10722 10726 10730 10733 10732 10728 10729 10732 10734 10737 10738 10740 10741 10742 10742 10740 10737 10737 10741 10744 10746 10747 10745 10742 10742 10743 10746 10749 10752 10756 10760 10761 10756 10754 10757 10760
10521 10522 10524 10525 10527 10529 10530 10532 10534 10536 10539 10542 10545 10549 10553 10558 10563 10569 10574 10578 10583 10588 10593 10598 10604 10610 10617 10621 10626 10632 10636 10642 10648 10653 10661 10666 10669 10673 10677 10681 10684 10687 10691 10695 10699 10702 10704 10705 10708 10711 10713 10716 10719 10724 10726 10727 10724 10720 10722 10726 10729 10731 10731 10733 10735 10735 10736 10733 10729 10729 10734 10737 10739 10742 10740 10737 10734 10736 10742 10744 10746 10750 10754 10753 10747 10747 10751 10753
10509 10511 10512 10514 10516 10518 10519 10521 10524 10526 10529 10532 10535 10539 10544 10548 10553 10559 10564 10570 10574 10579 10584 10590 10596 10603 10608 10612 10617 10623 10627 10634 10640 10645 10653 10658 10662 10667 10671 10675 10679 10682 10686 10690 10693 10695 10696 10699 10703 10707 10710 10713 10716 10719 10719 10719 10718 10715 10718 10722 10723 10723 10724 10726 10727 10727 10728 10728 10724 10722 10726 10730 10733 10735 10732 10729 10730 10734 10738 10740 10740 10743 10746 10742 10739 10741 10744 10747
10498 10499 10501 10503 10505 10507 10508 10511 10513 10516 10518 10522 10526 10530 10534 10538 10543 10550 10556 10561 10565 10570 10575 10581 10588 10595 10599 10604 10609 10612 10618 10627 10632 10637 10646 10651 10656 10661 10666 10670 10673 10677 10681 10684 10686 10688 10690 10695 10700 10704 10707 10708 10710 10711 10712 10713 10713 10711 10712 10716 10716 10717 10719 10720 10719 10718 10721 10724 10720 10716 10719 10722 10724 10724 10723 10724 10729 10732 10733 10734 10735 10736 10736 10732 10732 10736 10738 10742
10487 10488 10490 10492 10494 10496 10498 10500 10503 10506 10509 10513 10517 10521 10525 10529 10534 10541 10547 10552 10556 10561 10566 10572 10580 10586 10592 10596 10599 10604 10612 10620 10624 10630 10639 10646 10651 10655 10659 10663 10667 10671 10674 10677 10679 10682 10687 10693 10697 10699 10700 10702 10702 10704 10707 10708 10708 10706 10708 10709 10710 10712 10713 10711 10710 10712 10717 10718 10715 10713 10714 10713 10713 10715 10717 10720 10725 10728 10729 10729 10729 10729 10728 10724 10726 10730 10731 10735
10477 10478 10480 10482 10484 10486 10488 10490 10493 10496 10500 10504 10508 10512 10515 10520 10526 10532 10538 10543 10547 10552 10558 10565 10572 10578 10583 10586 10590 10599 10606 10611 10615 10623 10632 10638 10643 10648 10652 10656 10660 10664 10667 10670 10673 10678 10684 10688 10690 10692 10693 10695 10696 10700 10703 10702 10701 10703 10704 10703 10702 10704 10704 10704 10706 10709 10710 10709 10709 10709 10707 10704 10705 10708 10711 10714 10720 10723 10724 10724 10723 10723 10720 10716 10719 10723 10725 10728
10467 10469 10470 10472 10474 10477 10479 10481 10484 10487 10491 10495 10499 10502 10506 10511 10517 10523 10529 10534 10539 10544 10550 10558 10563 10569 10574 10577 10585 10594 10596 10600 10608 10616 10623 10629 10635 10640 10645 10649 10653 10657 10660 10665 10669 10674 10678 10681 10683 10685 10687 10690 10693 10697 10697 10696 10696 10698 10700 10697 10694 10695 10697 10701 10704 10704 10703 10703 10703 10702 10699 10698 10699 10701 10704 10709 10714 10718 10719 10719 10718 10717 10714 10709 10711 10716 10719 10722
10458 10460 10461 10463 10465 10467 10469 10472 10474 10478 10482 10486 10489 10493 10497 10502 10508 10514 10520 10525 10530 10536 10542 10550 10555 10559 10564 10570 10580 10585 10587 10591 10600 10608 10615 10622 10628 10633 10638 10642 10646 10651 10655 10660 10663 10668 10672 10674 10677 10680 10682 10686 10689 10690 10689 10690 10691 10692 10693 10690 10689 10691 10694 10697 10698 10698 10698 10699 10697 10694 10692 10692 10693 10695 10698 10702 10707 10711 10713 10714 10713 10711 10708 10705 10706 10709 10713 10715
10449 10450 10452 10453 10455 10457 10459 10461 10464 10468 10472 10475 10479 10483 10488 10493 10498 10504 10511 10515 10521 10528 10535 10542 10547 10550 10554 10564 10572 10574 10577 10581 10591 10602 10608 10614 10621 10625 10631 10636 10641 10645 10650 10654 10657 10662 10667 10669 10671 10675 10678 10681 10683 10683 10683 10684 10684 10684 10685 10685 10686 10689 10691 10691 10690 10691 10693 10694 10691 10687 10687 10688 10689 10691 10693 10696 10702 10707 10709 10709 10708 10705 10704 10702 10702 10704 10706 10708
10438 10439 10441 10442 10444 10446 10448 10450 10453 10457 10460 10463 10467 10472 10477 10482 10488 10495 10501 10506 10512 10520 10526 10532 10537 10541 10547 10557 10562 10564 10569 10575 10586 10597 10601 10606 10614 10619 10625 10630 10635 10639 10644 10648 10652 10657 10661 10663 10666 10670 10673 10676 10677 10677 10677 10676 10674 10676 10680 10683 10684 10685 10686 10685 10683 10684 10688 10689 10685 10681 10681 10684 10685 10687 10689 10692 10698 10703 10704 10704 10702 10700 10700 10699 10699 10699 10700 10702
10426 10427 10428 10430 10432 10433 10435 10437 10440 10444 10447 10451 10455 10460 10465 10471 10478 10486 10491 10496 10503 10511 10517 10522 10527 10532 10539 10547 10551 10557 10564 10571 10581 10589 10594 10601 10607 10613 10618 10623 10629 10634 10639 10643 10647 10651 10655 10658 10662 10666 10668 10668 10668 10669 10669 10667 10668 10673 10678 10679 10678 10678 10679 10679 10678 10679 10682 10683 10680 10674 10674 10679 10683 10684 10686 10688 10692 10697 10697 10697 10697 10695 10695 10696 10695 10695 10696 10697
10413 10414 10415 10416 10418 10420 10421 10424 10427 10430 10434 10438 10443 10448 10454 10461 10468 10475 10480 10487 10495 10500 10506 10512 10517 10523 10530 10537 10544 10553 10560 10566 10574 10582 10588 10594 10601 10606 10611 10617 10623 10629 10634 10638 10641 10645 10649 10654 10658 10660 10660 10659 10660 10663 10662 10661 10665 10671 10673 10672 10672 10672 10672 10672 10673 10673 10674 10677 10675 10669 10668 10673 10678 10679 10681 10683 10686 10689 10690 10690 10691 10691 10691 10691 10691 10691 10692 10692
10399 10400 10400 10402 10403 10405 10407 10409 10413 10417 10421 10425 10431 10437 10444 10450 10457 10464 10471 10478 10483 10489 10497 10502 10508 10515 10523 10531 10540 10548 10553 10560 10567 10574 10581 10588 10594 10600 10606 10612 10619 10624 10628 10631 10635 10640 10645 10650 10652 10651 10650 10651 10655 10657 10657 10658 10662 10666 10666 10665 10665 10664 10664 10666 10667 10667 10668 10671 10670 10667 10666 10667 10670 10673 10675 10678 10680 10682 10684 10684 10685 10685 10685 10686 10686 10685 10686 10686
10385 10385 10387 10388 10389 10391 10393 10397 10401 10405 10410 10415 10421 10428 10434 10440 10447 10455 10461 10467 10474 10482 10488 10492 10500 10509 10517 10525 10534 10541 10546 10553 10560 10568 10576 10583 10590 10596 10602 10608 10613 10617 10620 10623 10630 10637 10642 10645 10642 10640 10642 10647 10651 10651 10652 10655 10657 10659 10659 10659 10657 10656 10657 10660 10661 10662 10662 10664 10664 10664 10664 10661 10663 10667 10670 10672 10674 10675 10677 10679 10680 10680 10681 10681 10681 10680 10680 10681
10372 10373 10374 10375 10377 10379 10383 10387 10391 10396 10401 10407 10413 10420 10426 10432 10440 10446 10452 10459 10467 10474 10479 10486 10496 10503 10511 10520 10529 10536 10542 10549 10557 10565 10572 10578 10585 10591 10596 10601 10605 10608 10612 10620 10628 10634 10636 10634 10630 10633 10639 10643 10645 10645 10648 10650 10651 10652 10652 10652 10649 10647 10651 10654 10655 10656 10657 10659 10660 10661 10662 10658 10656 10661 10664 10666 10667 10669 10671 10673 10674 10676 10677 10677 10676 10676 10675 10675
10361 10362 10364 10365 10367 10371 10375 10379 10384 10388 10393 10399 10406 10412 10418 10425 10432 10439 10446 10454 10462 10470 10476 10482 10489 10497 10506 10517 10524 10530 10536 10543 10550 10557 10565 10572 10577 10583 10589 10595 10598 10602 10610 10618 10624 10626 10625 10622 10623 10630 10636 10638 10639 10639 10642 10644 10645 10645 10646 10645 10640 10639 10646 10649 10650 10653 10654 10655 10656 10658 10659 10655 10652 10653 10656 10658 10659 10661 10664 10666 10668 10671 10672 10672 10672 10671 10670 10669
10352 10353 10355 10357 10360 10364 10368 10373 10377 10381 10387 10394 10400 10406 10413 10421 10428 10436 10444 10452 10460 10467 10472 10477 10485 10495 10504 10512 10519 10524 10530 10536 10543 10551 10559 10565 10570 10578 10584 10588 10593 10600 10607 10612 10616 10617 10614 10616 10622 10628 10631 10632 10633 10634 10636 10638 10638 10639 10640 10639 10633 10633 10640 10644 10645 10648 10648 10649 10651 10653 10654 10652 10649 10649 10647 10647 10649 10652 10656 10660 10663 10665 10667 10668 10668 10667 10664 10662
10345 10346 10348 10351 10355 10358 10363 10367 10371 10377 10384 10391 10397 10403 10411 10418 10426 10434 10442 10450 10458 10463 10469 10476 10484 10492 10501 10510 10515 10519 10525 10533 10541 10548 10554 10560 10567 10573 10578 10583 10590 10596 10600 10605 10609 10608 10607 10614 10620 10622 10624 10626 10627 10628 10629 10631 10633 10633 10635 10633 10626 10628 10635 10638 10639 10641 10642 10644 10645 10647 10649 10648 10648 10647 10641 10639 10640 10643 10648 10652 10657 10661 10662 10663 10663 10661 10658 10656
10339 10341 10343 10346 10350 10354 10358 10363 10369 10376 10382 10389 10395 10403 10410 10418 10426 10433 10441 10449 10455 10461 10468 10474 10479 10489 10501 10507 10509 10514 10523 10530 10537 10543 10549 10556 10563 10568 10573 10580 10585 10589 10593 10598 10601 10601 10603 10610 10614 10616 10619 10620 10622 10623 10623 10626 10627 10628 10629 10625 10620 10625 10632 10633 10633 10634 10637 10639 10640 10642 10643 10644 10645 10642 10635 10634 10636 10637 10640 10644 10649 10656 10657 10656 10655 10653 10651 10652
10335 10337 10339 10343 10346 10351 10356 10361 10367 10373 10379 10386 10393 10400 10408 10417 10426 10433 10440 10447 10453 10460 10466 10470 10476 10488 10497 10499 10502 10511 10519 10524 10531 10539 10545 10552 10558 10562 10568 10574 10578 10582 10587 10593 10596 10596 10599 10604 10608 10610 10613 10615 10617 10617 10618 10620 10621 10622 10622 10617 10616 10622 10627 10628 10629 10630 10631 10633 10634 10636 10638 10640 10639 10634 10628 10630 10633 10634 10636 10638 10641 10647 10649 10648 10647 10646 10645 10647
10331 10333 10336 10340 10344 10348 10353 10359 10364 10370 10376 10382 10389 10397 10406 10416 10423 10431 10439 10445 10451 10458 10462 10467 10475 10484 10491 10495 10501 10507 10511 10520 10530 10534 10538 10546 10552 10556 10562 10567 10571 10576 10581 10588 10590 10589 10593 10598 10601 10604 10607 10610 10611 10611 10613 10615 10615 10616 10615 10612 10613 10617 10620 10623 10625 10625 10626 10626 10628 10631 10633 10633 10630 10626 10624 10626 10629 10632 10634 10633 10633 10636 10639 10640 10641 10641 10641 10642
10328 10331 10334 10337 10341 10346 10351 10357 10363 10368 10375 10382 10391 10400 10409 10416 10423 10430 10437 10443 10449 10454 10459 10465 10472 10481 10488 10492 10496 10501 10508 10519 10525 10526 10532 10542 10548 10552 10557 10560 10564 10569 10576 10583 10583 10582 10588 10593 10595 10599 10602 10604 10605 10606 10608 10609 10609 10609 10609 10609 10609 10612 10615 10616 10618 10620 10619 10621 10624 10625 10624 10624 10623 10622 10621 10621 10625 10629 10630 10628 10627 10628 10630 10632 10634 10634 10636 10636
10326 10329 10332 10336 10340 10345 10351 10357 10362 10368 10375 10384 10392 10399 10407 10414 10422 10429 10434 10440 10445 10450 10456 10462 10469 10478 10484 10488 10493 10498 10506 10514 10519 10523 10530 10539 10544 10548 10551 10555 10560 10566 10573 10578 10578 10578 10582 10587 10590 10594 10597 10599 10600 10602 10602 10603 10602 10602 10604 10605 10605 10607 10609 10609 10612 10614 10614 10616 10617 10615 10614 10616 10618 10619 10617 10616 10619 10624 10624 10622 10621 10622 10623 10625 10626 10627 10628 10628
10324 10327 10331 10335 10340 10345 10351 10356 10361 10368 10376 10384 10391 10398 10405 10412 10420 10426 10431 10437 10444 10449 10454 10460 10468 10475 10479 10484 10489 10494 10502 10511 10518 10521 10526 10534 10540 10544 10547 10551 10556 10563 10569 10573 10573 10573 10576 10581 10585 10588 10591 10593 10595 10596 10596 10597 10596 10595 10599 10601 10601 10603 10604 10604 10606 10606 10608 10610 10608 10606 10608 10611 10613 10615 10614 10613 10614 10617 10618 10616 10615 10616 10617 10618 10619 10621 10621 10622
10323 10326 10330 10335 10340 10346 10351 10356 10362 10370 10378 10386 10392 10399 10406 10413 10419 10423 10429 10436 10442 10446 10451 10457 10464 10469 10475 10481 10486 10491 10500 10508 10514 10515 10519 10527 10533 10536 10540 10544 10549 10556 10562 10564 10565 10565 10570 10575 10578 10581 10584 10587 10589 10590 10592 10591 10590 10590 10594 10596 10597 10598 10599 10600 10600 10600 10601 10601 10600 10602 10604 10606 10608 10610 10611 10610 10609 10611 10612 10610 10609 10609 10610 10612 10613 10614 10616 10616
10322 10326 10330 10335 10340 10346 10351 10357 10365 10374 10381 10387 10393 10400 10407 10412 10416 10420 10426 10431 10435 10439 10446 10452 10458 10464 10471 10477 10482 10488 10497 10504 10508 10509 10512 10520 10526 10530 10534 10538 10543 10549 10554 10556 10557 10561 10565 10568 10572 10576 10580 10582 10584 10585 10585 10584 10583 10586 10589 10591 10592 10593 10595 10596 10595 10594 10595 10594 10594 10598 10600 10601 10603 10606 10609 10608 10606 10605 10606 10606 10604 10603 10604 10605 10607 10608 10609 10608
10321 10326 10330 10335 10341 10346 10352 10360 10368 10375 10381 10387 10393 10400 10406 10409 10412 10417 10423 10426 10430 10436 10442 10447 10454 10460 10467 10472 10478 10484 10491 10497 10500 10503 10507 10515 10522 10526 10530 10534 10539 10543 10547 10550 10554 10557 10561 10564 10568 10571 10573 10576 10577 10578 10577 10577 10579 10582 10584 10586 10588 10589 10591 10591 10589 10588 10589 10589 10591 10593 10595 10597 10598 10601 10606 10607 10604 10601 10600 10600 10600 10598 10598 10598 10600 10600 10601 10601
10321 10326 10331 10337 10342 10348 10355 10362 10369 10375 10380 10386 10392 10397 10401 10403 10408 10415 10419 10422 10427 10433 10439 10446 10453 10459 10463 10469 10474 10480 10486 10490 10494 10498 10503 10510 10516 10520 10524 10527 10532 10535 10540 10545 10549 10553 10556 10559 10562 10564 10566 10569 10570 10571 10572 10574 10576 10577 10578 10580 10583 10584 10585 10584 10583 10583 10585 10587 10588 10589 10590 10591 10593 10598 10602 10602 10601 10597 10594 10594 10594 10593 10593 10592 10592 10592 10592 10593
10322 10327 10332 10337 10343 10350 10357 10363 10369 10374 10380 10385 10390 10392 10394 10399 10406 10413 10417 10421 10426 10433 10439 10445 10451 10456 10460 10465 10469 10476 10482 10486 10491 10496 10500 10505 10510 10514 10518 10521 10525 10529 10535 10539 10542 10546 10549 10552 10555 10557 10560 10563 10565 10566 10568 10570 10571 10572 10573 10574 10576 10577 10578 10579 10579 10579 10581 10583 10584 10585 10585 10586 10589 10594 10596 10595 10594 10591 10589 10589 10588 10588 10587 10586 10586 10585 10586 10586
10324 10328 10333 10338 10344 10350 10357 10363 10369 10374 10379 10383 10386 10388 10392 10398 10405 10411 10415 10420 10426 10432 10437 10441 10445 10450 10455 10458 10463 10470 10475 10481 10487 10492 10496 10500 10503 10507 10512 10515 10519 10523 10528 10532 10536 10540 10542 10545 10549 10552 10555 10558 10559 10561 10563 10565 10566 10567 10567 10567 10569 10571 10574 10575 10575 10576 10578 10579 10581 10581 10580 10582 10585 10589 10590 10589 10587 10586 10585 10584 10583 10582 10581 10580 10580 10579 10580 10581
10325 10330 10335 10340 10345 10350 10356 10362 10367 10373 10377 10379 10382 10386 10392 10398 10404 10408 10412 10417 10424 10429 10433 10437 10442 10448 10453 10457 10462 10468 10473 10479 10484 10487 10491 10493 10495 10500 10506 10510 10514 10518 10522 10527 10532 10535 10537 10540 10545 10548 10550 10552 10554 10555 10558 10559 10560 10562 10560 10560 10563 10567 10569 10570 10571 10572 10574 10575 10577 10578 10577 10578 10580 10583 10583 10583 10582 10581 10580 10579 10578 10577 10576 10575 10574 10574 10574 10575
10325 10330 10335 10340 10345 10351 10356 10361 10365 10369 10373 10376 10380 10385 10391 10398 10403 10406 10410 10416 10421 10427 10431 10435 10440 10446 10451 10456 10461 10467 10472 10477 10480 10481 10485 10487 10489 10495 10502 10508 10511 10514 10518 10524 10528 10530 10532 10536 10541 10543 10544 10548 10549 10550 10552 10554 10554 10554 10554 10555 10559 10561 10563 10566 10567 10568 10569 10571 10573 10575 10574 10574 10575 10576 10578 10578 10577 10577 10576 10574 10573 10572 10571 10571 10569 10569 10569 10570
10324 10329 10335 10340 10345 10351 10356 10360 10364 10366 10369 10373 10378 10384 10390 10397 10401 10404 10408 10413 10417 10423 10427 10430 10435 10440 10446 10451 10457 10462 10467 10472 10475 10477 10481 10484 10487 10492 10499 10505 10508 10511 10516 10520 10522 10525 10529 10533 10536 10537 10539 10543 10545 10544 10544 10545 10546 10548 10549 10551 10553 10555 10559 10562 10563 10564 10565 10567 10569 10570 10571 10570 10569 10570 10572 10573 10572 10572 10571 10569 10568 10567 10566 10566 10565 10564 10564 10565
10323 10329 10335 10340 10345 10350 10354 10357 10360 10363 10367 10373 10378 10384 10391 10396 10399 10403 10407 10411 10414 10418 10422 10427 10432 10437 10443 10448 10453 10457 10461 10466 10470 10473 10476 10480 10485 10490 10496 10501 10504 10507 10510 10512 10515 10522 10527 10529 10531 10532 10533 10536 10538 10537 10535 10537 10539 10541 10544 10547 10549 10552 10556 10558 10559 10560 10560 10561 10563 10565 10565 10565 10564 10565 10567 10567 10567 10566 10565 10564 10564 10564 10562 10561 10561 10561 10561 10561
10323 10329 10334 10339 10343 10347 10351 10354 10358 10363 10368 10374 10379 10385 10390 10394 10398 10402 10406 10409 10412 10416 10422 10427 10431 10435 10440 10444 10447 10451 10455 10459 10464 10467 10470 10474 10480 10486 10491 10494 10497 10500 10503 10506 10512 10518 10521 10522 10524 10526 10527 10528 10529 10529 10529 10530 10532 10536 10541 10545 10547 10550 10553 10554 10555 10555 10555 10556 10558 10559 10559 10559 10560 10560 10561 10561 10561 10561 10559 10558 10559 10559 10559 10559 10558 10558 10558 10557
10323 10328 10332 10336 10341 10345 10349 10354 10359 10364 10369 10374 10380 10385 10390 10394 10397 10399 10402 10405 10409 10414 10420 10425 10428 10431 10435 10438 10443 10447 10451 10455 10459 10462 10464 10469 10474 10479 10484 10488 10491 10494 10497 10502 10507 10511 10512 10514 10517 10518 10519 10519 10520 10523 10525 10526 10527 10532 10538 10541 10543 10546 10548 10549 10549 10549 10550 10551 10552 10553 10553 10553 10554 10554 10555 10555 10555 10555 10554 10553 10553 10555 10555 10556 10556 10555 10554 10554
10320 10324 10329 10334 10338 10342 10347 10352 10358 10364 10370 10375 10379 10383 10387 10389 10391 10394 10399 10403 10406 10411 10417 10421 10423 10427 10431 10435 10439 10443 10447 10452 10456 10459 10462 10467 10472 10475 10478 10482 10485 10488 10491 10495 10500 10503 10505 10508 10510 10510 10510 10512 10514 10516 10520 10522 10523 10527 10532 10535 10537 10540 10542 10543 10543 10543 10545 10547 10547 10546 10546 10547 10548 10548 10548 10548 10549 10549 10548 10547 10547 10549 10551 10552 10552 10552 10550 10549
10317 10322 10326 10331 10335 10340 10344 10349 10355 10362 10366 10369 10373 10378 10382 10383 10386 10392 10397 10400 10403 10407 10412 10416 10419 10423 10427 10431 10434 10438 10442 10446 10451 10455 10458 10464 10468 10469 10470 10474 10478 10482 10485 10488 10492 10495 10497 10501 10503 10504 10505 10506 10508 10510 10513 10517 10520 10522 10526 10528 10530 10533 10534 10535 10537 10537 10539 10541 10541 10540 10540 10541 10542 10542 10541 10542 10543 10543 10542 10542 10541 10543 10545 10547 10548 10547 10546 10546
10317 10321 10325 10329 10333 10338 10343 10348 10354 10358 10361 10365 10371 10376 10379 10382 10386 10390 10394 10397 10400 10404 10408 10411 10414 10417 10421 10425 10428 10431 10435 10440 10446 10450 10454 10458 10461 10461 10463 10466 10471 10475 10479 10482 10485 10487 10491 10494 10497 10498 10498 10499 10500 10503 10507 10511 10514 10516 10518 10520 10523 10525 10527 10528 10530 10530 10532 10534 10536 10535 10534 10535 10536 10536 10535 10536 10536 10537 10536 10536 10536 10537 10540 10542 10543 10543 10543 10543
10315 10320 10324 10329 10333 10338 10343 10348 10353 10356 10360 10365 10370 10374 10378 10381 10384 10387 10391 10395 10398 10401 10404 10407 10409 10412 10415 10419 10422 10424 10428 10434 10441 10446 10449 10451 10453 10454 10456 10459 10463 10469 10473 10476 10477 10480 10483 10487 10490 10491 10492 10493 10494 10497 10501 10505 10508 10510 10511 10513 10516 10518 10520 10522 10523 10523 10526 10528 10530 10529 10529 10530 10531 10530 10529 10530 10530 10531 10531 10531 10530 10532 10534 10536 10538 10539 10539 10540
10314 10319 10324 10328 10332 10337 10342 10346 10350 10353 10358 10363 10367 10371 10376 10378 10380 10384 10388 10391 10394 10397 10399 10401 10402 10405 10409 10413 10417 10419 10423 10430 10436 10442 10446 10447 10447 10448 10451 10453 10457 10461 10465 10468 10470 10472 10475 10479 10482 10483 10484 10487 10489 10491 10494 10498 10502 10504 10505 10506 10509 10511 10513 10515 10516 10517 10520 10523 10524 10524 10524 10524 10524 10524 10524 10524 10524 10525 10525 10525 10525 10526 10529 10531 10534 10535 10535 10536
10313 10318 10322 10326 10330 10335 10339 10344 10348 10352 10356 10360 10364 10368 10372 10374 10377 10380 10383 10387 10390 10392 10394 10395 10397 10401 10405 10410 10413 10416 10419 10424 10429 10434 10439 10441 10441 10442 10444 10446 10449 10453 10456 10459 10461 10464 10468 10471 10474 10476 10477 10480 10483 10485 10487 10491 10494 10497 10498 10498 10502 10505 10507 10509 10510 10512 10515 10517 10518 10518 10518 10518 10518 10518 10518 10518 10518 10520 10520 10520 10520 10521 10523 10526 10529 10530 10531 10532
10313 10317 10320 10324 10328 10332 10337 10341 10345 10350 10354 10358 10362 10366 10369 10371 10374 10377 10380 10383 10386 10388 10390 10392 10395 10398 10401 10404 10407 10409 10412 10417 10421 10425 10429 10433 10433 10433 10434 10437 10440 10443 10447 10449 10452 10456 10460 10463 10467 10469 10471 10474 10477 10478 10480 10483 10486 10489 10490 10492 10495 10498 10501 10503 10505 10506 10508 10510 10512 10512 10512 10512 10512 10513 10513 10512 10513 10515 10515 10515 10516 10517 10519 10521 10524 10525 10527 10528
10311 10315 10319 10323 10327 10331 10335 10340 10344 10348 10352 10356 10359 10362 10366 10368 10371 10374 10377 10380 10382 10385 10387 10389 10390 10392 10395 10398 10400 10403 10407 10410 10412 10415 10418 10422 10424 10425 10426 10428 10431 10434 10438 10441 10444 10449 10452 10455 10459 10462 10465 10468 10471 10471 10473 10475 10478 10481 10484 10486 10488 10492 10495 10497 10498 10500 10502 10505 10506 10506 10507 10507 10507 10508 10508 10508 10509 10510 10510 10511 10512 10513 10515 10516 10519 10521 10522 10523
10309 10313 10318 10322 10326 10330 10334 10339 10343 10346 10350 10353 10356 10359 10362 10365 10368 10371 10374 10376 10378 10380 10381 10382 10383 10385 10389 10393 10396 10398 10400 10401 10403 10407 10412 10416 10419 10421 10421 10421 10424 10429 10433 10435 10438 10441 10444 10448 10452 10454 10457 10461 10463 10464 10466 10467 10469 10472 10476 10479 10482 10485 10488 10490 10491 10494 10497 10499 10500 10500 10501 10502 10503 10504 10504 10504 10504 10505 10506 10507 10508 10509 10511 10512 10514 10516 10518 10518